Airfield :
LOGIN :

Register | Disclaimer

   EN    FR    IT 

 










Legend :    VFR   Marginal VFR   IFR   Intensive IFR   Very Intensive IFR
Visi :
Ceiling :
>= 8 km
>= 3000ft
5 to 8 km
1000 to 3000 ft
1500m to 5 km
500 to 1000 ft
800 to 1500m
200 to 500 ft
< 800m
< 200 ft
Symbols :   Thunderstorms  Fog  Heavy snow  Heavy precipitations  Wind > 20 kt
SIGMETs :     Misc.  Thunderstorms  Icing  Turbulence  Mountain Waves  Volcanic Ashes






- Airport Elevation : 915 ft
- IATA code : LUG


LSZA - Lugano

CURRENT METAR :
  • 021950Z AUTO 35005KT CAVOK 06/01 Q1012

EXPIRED METARs :
  • 021920Z AUTO VRB02KT CAVOK 07/00 Q1012
  • 021850Z AUTO 16004KT 120V220 CAVOK 10/M00 Q1012
  • 021820Z AUTO 20006KT CAVOK 10/M00 Q1011
  • 021750Z AUTO 19006KT 140V210 CAVOK 11/M00 Q1011
  • 021720Z AUTO 19006KT CAVOK 12/M00 Q1011

TAF TAF LSZA
Valid from the 02 at 15:00 until the 03 at 00:00 UTC


021425Z 0215/0224 20007KT CAVOK
ATIS : +41 22 417 40 88



MET'MAP, your aeronautical weather chart ! - Copyright ORBIFLY December 2007 - Disclaimer

ORBIFLY MET'MAP TEAM :

Programming & Development : Alexandra Zaïnal
Concept & original design : Baudouin d'Aumeries
Assistance for programming : Marc-Olivier Méhu
Technical & hardware support : Manuel Goepfert

Contact : metmap@orbifly.com




SOURCES & CREDITS :

   NOAA